GW7357 Weather Reports


Display with metric or nautical units.
time (UTC)temp
F
wind
direction
speed
MPH
gust
MPH
rain 1hr
in
rain 24hr
in
rain mn
in
humidity
%
barometer
mb
20260506131926 68 37 4.0 9.0 0.00 0.00 0.00 64 1011.2
20260506131422 68 109 5.0 8.0 0.00 0.00 0.00 65 1011.2
20260506130919 68 120 4.0 9.0 0.00 0.00 0.00 64 1011.1
20260506130416 68 91 8.0 9.0 0.00 0.00 0.00 65 1011.1
20260506125914 68 56 7.0 10.0 0.00 0.00 0.00 65 1011.0
20260506125412 68 83 8.0 9.0 0.00 0.00 0.00 65 1011.0
20260506124910 67 74 6.0 13.0 0.00 0.00 0.00 66 1011.0
20260506124407 67 80 8.0 9.0 0.00 0.00 0.00 67 1010.9
20260506123905 66 47 4.0 12.0 0.00 0.00 0.00 68 1011.1
20260506123402 66 77 3.0 9.0 0.00 0.00 0.00 68 1011.2
20260506122859 66 30 5.0 9.0 0.00 0.00 0.00 68 1011.1
20260506122356 66 57 5.0 6.0 0.00 0.00 0.00 68 1011.2
20260506121855 66 20 4.0 8.0 0.00 0.00 0.00 68 1011.3
20260506121351 66 112 4.0 7.0 0.00 0.00 0.00 68 1011.4
20260506120848 66 133 6.0 8.0 0.00 0.00 0.00 68 1011.5
20260506120346 66 35 5.0 9.0 0.00 0.00 0.00 67 1011.5
20260506115843 67 51 6.0 8.0 0.00 0.00 0.00 67 1011.6
20260506115341 66 55 5.0 8.0 0.00 0.00 0.00 68 1011.5
20260506114839 66 61 4.0 13.0 0.00 0.00 0.00 69 1011.4
20260506114336 66 64 6.0 12.0 0.00 0.00 0.00 69 1011.7
20260506113835 66 32 6.0 11.0 0.00 0.00 0.00 69 1011.7
20260506113332 66 60 6.0 8.0 0.00 0.00 0.00 69 1011.5
20260506112828 66 59 6.0 11.0 0.00 0.00 0.00 70 1011.5
20260506112326 66 71 7.0 9.0 0.00 0.00 0.00 70 1011.7
20260506111823 66 76 6.0 8.0 0.00 0.00 0.00 70 1011.5
20260506111321 66 40 4.0 8.0 0.00 0.00 0.00 70 1011.5
20260506110819 65 19 3.0 9.0 0.00 0.00 0.00 71 1011.3
20260506110315 65 98 5.0 6.0 0.00 0.00 0.00 72 1011.4
20260506105812 65 69 3.0 9.0 0.00 0.00 0.00 72 1011.4
20260506105309 64 47 8.0 9.0 0.00 0.00 0.00 73 1011.3
20260506104806 64 110 9.0 9.0 0.00 0.00 0.00 73 1011.4
20260506104304 64 12 2.0 6.0 0.00 0.00 0.00 74 1011.4
20260506103801 63 75 5.0 6.0 0.00 0.00 0.00 75 1011.4
20260506103258 63 59 4.0 6.0 0.00 0.00 0.00 75 1011.4
20260506102756 63 108 6.0 10.0 0.00 0.00 0.00 75 1011.3
20260506102254 63 12 3.0 6.0 0.00 0.00 0.00 75 1011.3
20260506101750 62 52 5.0 6.0 0.00 0.00 0.00 76 1011.3
20260506101247 62 17 3.0 6.0 0.00 0.00 0.00 76 1011.2
20260506100745 62 46 4.0 6.0 0.00 0.00 0.00 77 1011.2
20260506100243 62 32 5.0 6.0 0.00 0.00 0.00 77 1011.2
20260506095741 62 37 3.0 5.0 0.00 0.00 0.00 77 1011.1
20260506095238 62 73 3.0 6.0 0.00 0.00 0.00 77 1011.2
20260506094734 62 74 3.0 5.0 0.00 0.00 0.00 77 1011.4
20260506094233 61 35 5.0 9.0 0.00 0.00 0.00 77 1011.1
20260506093731 61 71 3.0 7.0 0.00 0.00 0.00 77 1011.1
20260506093228 61 76 4.0 9.0 0.00 0.00 0.00 77 1011.3
20260506092726 61 23 3.0 7.0 0.00 0.00 0.00 77 1011.2
20260506092223 62 26 2.0 6.0 0.00 0.00 0.00 77 1011.3
20260506091721 62 44 4.0 7.0 0.00 0.00 0.00 77 1011.4
20260506091218 62 65 3.0 6.0 0.00 0.00 0.00 76 1011.4
20260506090716 62 12 4.0 6.0 0.00 0.00 0.00 76 1011.4
20260506090212 62 69 5.0 8.0 0.00 0.00 0.00 76 1011.4
20260506085709 62 79 3.0 5.0 0.00 0.00 0.00 76 1011.5
20260506085205 62 82 4.0 7.0 0.00 0.00 0.00 76 1011.5
20260506084702 62 88 4.0 6.0 0.00 0.00 0.00 76 1011.5
20260506084158 62 85 5.0 7.0 0.00 0.00 0.00 75 1011.4
20260506083655 62 101 4.0 9.0 0.00 0.00 0.00 75 1011.4
20260506083153 62 92 3.0 6.0 0.00 0.00 0.00 75 1011.7
20260506082650 62 344 2.0 8.0 0.00 0.00 0.00 75 1011.7
20260506082145 62 30 3.0 6.0 0.00 0.00 0.00 75 1011.6
20260506081643 63 97 3.0 6.0 0.00 0.00 0.00 75 1011.6
20260506081141 63 60 6.0 8.0 0.00 0.00 0.00 74 1011.7
20260506080638 63 109 2.0 7.0 0.00 0.00 0.00 74 1011.7
20260506080135 63 102 6.0 7.0 0.00 0.00 0.00 74 1011.6
20260506073118 63 28 4.0 7.0 0.00 0.00 0.00 73 1011.7
20260506072615 63 35 4.0 7.0 0.00 0.00 0.00 73 1011.7
20260506072113 62 62 6.0 7.0 0.00 0.00 0.00 72 1011.4
20260506071610 63 81 3.0 8.0 0.00 0.00 0.00 72 1011.8
20260506071108 63 74 5.0 9.0 0.00 0.00 0.00 72 1011.7
20260506070605 63 78 4.0 7.0 0.00 0.00 0.00 72 1011.9
20260506062039 65 84 5.0 7.0 0.00 0.00 0.00 68 1011.7
20260506061535 65 38 4.0 6.0 0.00 0.00 0.00 67 1011.7
20260506061033 65 47 3.0 6.0 0.00 0.00 0.00 66 1011.6
20260506060531 66 73 6.0 8.0 0.00 0.00 0.00 66 1011.5
20260506051000 68 150 5.0 8.0 0.00 0.00 0.00 63 1012.0
20260506050457 68 107 7.0 11.0 0.00 0.00 0.00 62 1012.2
20260506044948 68 111 8.0 12.0 0.00 0.00 0.00 62 1012.1
20260506044446 68 65 3.0 8.0 0.00 0.00 0.00 61 1012.3
20260506043942 68 72 4.0 7.0 0.00 0.00 0.00 61 1012.4
20260506043440 68 39 4.0 8.0 0.00 0.00 0.00 61 1012.3
20260506042937 68 73 6.0 8.0 0.00 0.00 0.00 61 1012.2
20260506042437 68 68 7.0 9.0 0.00 0.00 0.00 60 1012.1
20260506041934 68 15 4.0 12.0 0.00 0.00 0.00 60 1012.3
20260506041432 68 40 5.0 12.0 0.00 0.00 0.00 60 1012.3
20260506040929 68 71 4.0 11.0 0.00 0.00 0.00 60 1012.1
20260506040427 68 62 5.0 12.0 0.00 0.00 0.00 59 1012.2
20260506035922 68 100 6.0 11.0 0.00 0.00 0.00 59 1012.0
20260506035420 69 65 6.0 8.0 0.00 0.00 0.00 59 1012.0
20260506034916 69 53 6.0 13.0 0.00 0.00 0.00 58 1012.0
20260506034414 69 9 4.0 11.0 0.00 0.00 0.00 58 1012.3
20260506033911 69 86 6.0 13.0 0.00 0.00 0.00 58 1012.0
20260506033408 69 45 4.0 10.0 0.00 0.00 0.00 58 1012.0
20260506032905 69 93 6.0 11.0 0.00 0.00 0.00 57 1011.8
20260506032402 69 62 6.0 11.0 0.00 0.00 0.00 57 1011.9
20260506031858 69 13 5.0 12.0 0.00 0.00 0.00 57 1012.0
20260506031356 69 107 7.0 11.0 0.00 0.00 0.00 57 1011.8
20260506030853 69 73 4.0 12.0 0.00 0.00 0.00 57 1012.1
20260506030351 69 78 6.0 10.0 0.00 0.00 0.00 56 1011.8
20260506025848 69 103 5.0 9.0 0.00 0.00 0.00 56 1011.9
20260506025344 69 54 7.0 10.0 0.00 0.00 0.00 56 1012.1
20260506024841 69 98 5.0 11.0 0.00 0.00 0.00 56 1011.9
20260506024338 69 7 6.0 9.0 0.00 0.00 0.00 56 1012.0
20260506023834 69 89 4.0 7.0 0.00 0.00 0.00 56 1011.9
20260506023331 69 117 5.0 8.0 0.00 0.00 0.00 55 1012.0
20260506022828 69 73 6.0 15.0 0.00 0.00 0.00 55 1012.0
20260506022326 69 93 6.0 8.0 0.00 0.00 0.00 55 1012.0
20260506021824 69 59 5.0 7.0 0.00 0.00 0.00 55 1012.0
20260506021320 69 34 4.0 9.0 0.00 0.00 0.00 55 1012.0
20260506020817 69 85 6.0 10.0 0.00 0.00 0.00 55 1011.8
20260506020315 70 113 5.0 9.0 0.00 0.00 0.00 55 1011.7
20260506015813 70 94 7.0 10.0 0.00 0.00 0.00 54 1011.9
20260506015310 69 33 4.0 7.0 0.00 0.00 0.00 55 1011.9
20260506014806 70 83 2.0 7.0 0.00 0.00 0.00 54 1011.9
20260506014303 70 23 4.0 7.0 0.00 0.00 0.00 54 1011.7
20260506013800 69 105 8.0 14.0 0.00 0.00 0.00 54 1011.9
20260506013257 69 78 6.0 7.0 0.00 0.00 0.00 54 1011.8
20260506012753 69 32 4.0 6.0 0.00 0.00 0.00 55 1011.7
20260506012250 69 19 3.0 5.0 0.00 0.00 0.00 55 1011.8
20260506011748 69 328 0.0 6.0 0.00 0.00 0.00 55 1011.7
20260506011244 69 269 2.0 6.0 0.00 0.00 0.00 55 1011.6
20260506010743 69 21 4.0 6.0 0.00 0.00 0.00 55 1011.6
20260506010239 69 81 4.0 6.0 0.00 0.00 0.00 55 1011.4
20260506005737 69 45 4.0 5.0 0.00 0.00 0.00 55 1011.2
20260506005233 69 82 3.0 10.0 0.00 0.00 0.00 55 1011.3
20260506004729 69 54 4.0 5.0 0.00 0.00 0.00 54 1011.3
20260506004227 69 92 2.0 8.0 0.00 0.00 0.00 54 1011.4
20260506003723 69 58 2.0 13.0 0.00 0.00 0.00 54 1011.3
20260506003219 70 42 6.0 6.0 0.00 0.00 0.00 54 1011.2
20260506002715 70 108 4.0 6.0 0.00 0.00 0.00 53 1011.1
20260506002212 70 50 4.0 6.0 0.00 0.00 0.00 54 1011.0
20260506001707 70 9 5.0 8.0 0.00 0.00 0.00 53 1011.0
20260506001205 70 57 2.0 7.0 0.00 0.00 0.00 53 1010.9
20260506000702 70 9 2.0 6.0 0.00 0.00 0.00 54 1010.8
20260506000200 71 28 3.0 5.0 0.00 0.00 0.00 53 1010.8
20260505235657 71 53 2.0 3.0 0.00 0.00 0.00 52 1010.8
20260505235155 72 55 3.0 4.0 0.00 0.00 0.00 51 1010.9
20260505234651 72 44 5.0 5.0 0.00 0.00 0.00 51 1010.5
20260505234148 72 44 3.0 5.0 0.00 0.00 0.00 51 1010.6
20260505233645 72 77 4.0 4.0 0.00 0.00 0.00 51 1010.5
20260505233142 72 79 5.0 5.0 0.00 0.00 0.00 51 1010.4
20260505232640 72 4 2.0 5.0 0.00 0.00 0.00 50 1010.2
20260505232137 73 63 4.0 6.0 0.00 0.00 0.00 50 1010.2
20260505231634 73 71 3.0 6.0 0.00 0.00 0.00 49 1010.2
20260505231133 74 60 4.0 6.0 0.00 0.00 0.00 48 1010.0
20260505230631 74 66 2.0 8.0 0.00 0.00 0.00 47 1009.8
20260505230126 74 105 5.0 6.0 0.00 0.00 0.00 46 1010.0
20260505225623 75 61 5.0 9.0 0.00 0.00 0.00 45 1009.8
20260505225119 75 120 7.0 11.0 0.00 0.00 0.00 44 1009.8
20260505224616 75 37 3.0 9.0 0.00 0.00 0.00 44 1009.5
20260505224114 76 56 5.0 10.0 0.00 0.00 0.00 43 1009.8
20260505223611 76 73 3.0 8.0 0.00 0.00 0.00 43 1009.5
20260505223107 76 38 5.0 6.0 0.00 0.00 0.00 43 1009.6
20260505222603 77 44 4.0 7.0 0.00 0.00 0.00 42 1009.5
20260505222059 77 0 5.0 6.0 0.00 0.00 0.00 41 1009.5
20260505221557 77 46 4.0 4.0 0.00 0.00 0.00 40 1009.5
20260505221053 77 108 5.0 9.0 0.00 0.00 0.00 40 1009.2
20260505220550 77 59 3.0 7.0 0.00 0.00 0.00 41 1009.0
20260505220048 77 94 4.0 6.0 0.00 0.00 0.00 41 1009.2
20260505215546 76 40 4.0 5.0 0.00 0.00 0.00 41 1009.3
20260505215043 76 53 2.0 5.0 0.00 0.00 0.00 42 1009.3
20260505214542 76 87 1.0 5.0 0.00 0.00 0.00 44 1009.3
20260505214038 76 48 2.0 4.0 0.00 0.00 0.00 43 1009.2
20260505213536 76 9 1.0 8.0 0.00 0.00 0.00 42 1009.2
20260505213032 76 119 1.0 3.0 0.00 0.00 0.00 43 1009.1
20260505212528 76 78 4.0 4.0 0.00 0.00 0.00 42 1009.2
20260505212026 77 6 1.0 4.0 0.00 0.00 0.00 41 1009.2
20260505211523 77 37 3.0 5.0 0.00 0.00 0.00 40 1009.1
20260505211019 77 18 2.0 4.0 0.00 0.00 0.00 40 1009.0
20260505210516 77 348 3.0 6.0 0.00 0.00 0.00 39 1009.2
20260505210014 77 35 2.0 4.0 0.00 0.00 0.00 41 1009.2
20260505205512 78 149 2.0 5.0 0.00 0.00 0.00 39 1008.9
20260505205008 78 356 2.0 4.0 0.00 0.00 0.00 37 1008.8
20260505204506 77 59 0.0 4.0 0.00 0.00 0.00 41 1009.2
20260505204003 77 16 0.0 4.0 0.00 0.00 0.00 42 1009.2
20260505203459 78 98 1.0 5.0 0.00 0.00 0.00 42 1009.3
20260505202955 78 346 4.0 4.0 0.00 0.00 0.00 42 1009.2
20260505202453 78 106 2.0 5.0 0.00 0.00 0.00 41 1009.1
20260505201948 78 61 4.0 6.0 0.00 0.00 0.00 41 1009.3
20260505201446 78 119 5.0 5.0 0.00 0.00 0.00 40 1009.2
20260505200943 79 105 3.0 11.0 0.00 0.00 0.00 40 1009.3
20260505200441 79 42 2.0 5.0 0.00 0.00 0.00 40 1009.4
20260505195936 79 76 2.0 7.0 0.00 0.00 0.00 40 1009.4
20260505195434 79 344 2.0 4.0 0.00 0.00 0.00 40 1009.4
20260505194931 78 300 2.0 5.0 0.00 0.00 0.00 41 1009.8
20260505194428 78 77 5.0 5.0 0.00 0.00 0.00 42 1009.9
20260505193928 78 35 2.0 3.0 0.00 0.00 0.00 42 1009.8
20260505193426 78 49 0.0 5.0 0.00 0.00 0.00 43 1009.7
20260505192924 78 144 2.0 4.0 0.00 0.00 0.00 43 1010.0
20260505192422 78 86 0.0 4.0 0.00 0.00 0.00 44 1010.1
20260505191919 77 52 1.0 4.0 0.00 0.00 0.00 44 1010.2
20260505191418 77 94 4.0 4.0 0.00 0.00 0.00 44 1010.3
20260505190914 76 306 1.0 6.0 0.00 0.00 0.00 45 1010.2
20260505190409 76 79 2.0 4.0 0.00 0.00 0.00 46 1010.5
20260505185905 76 30 4.0 6.0 0.00 0.00 0.00 45 1010.6
20260505185402 76 359 3.0 5.0 0.00 0.00 0.00 47 1010.7
20260505184858 75 56 3.0 5.0 0.00 0.00 0.00 47 1010.8
20260505184355 75 49 2.0 7.0 0.00 0.00 0.00 48 1010.9
20260505183852 75 156 3.0 6.0 0.00 0.00 0.00 48 1011.0
20260505183349 75 147 4.0 6.0 0.00 0.00 0.00 48 1011.0
20260505182846 75 114 3.0 6.0 0.00 0.00 0.00 48 1010.8
20260505182343 75 41 2.0 8.0 0.00 0.00 0.00 49 1010.9
20260505181839 75 141 4.0 6.0 0.00 0.00 0.00 48 1010.9
20260505181336 75 101 3.0 6.0 0.00 0.00 0.00 49 1011.0
20260505180833 76 153 12.0 12.0 0.00 0.00 0.00 48 1010.9
20260505180330 76 50 3.0 6.0 0.00 0.00 0.00 48 1011.1
20260505175826 76 132 6.0 6.0 0.00 0.00 0.00 47 1011.2
20260505175323 75 42 2.0 4.0 0.00 0.00 0.00 47 1011.2
20260505174819 75 69 4.0 7.0 0.00 0.00 0.00 48 1011.3
20260505174317 75 114 3.0 9.0 0.00 0.00 0.00 49 1011.2
20260505173812 78 114 5.0 10.0 0.00 0.00 0.00 46 1011.2
20260505173309 78 20 1.0 4.0 0.00 0.00 0.00 43 1011.2
20260505172806 78 109 3.0 4.0 0.00 0.00 0.00 43 1011.4
20260505172306 78 168 1.0 4.0 0.00 0.00 0.00 43 1011.3
20260505171758 78 299 3.0 4.0 0.00 0.00 0.00 43 1011.3
20260505171255 78 63 4.0 11.0 0.00 0.00 0.00 43 1011.4
20260505170752 79 67 1.0 4.0 0.00 0.00 0.00 43 1011.4
20260505170249 78 48 2.0 4.0 0.00 0.00 0.00 42 1011.4
20260505165750 78 86 6.0 11.0 0.00 0.00 0.00 41 1011.2
20260505165246 78 101 4.0 6.0 0.00 0.00 0.00 41 1011.5
20260505164741 78 339 4.0 5.0 0.00 0.00 0.00 42 1011.6
20260505164239 77 63 2.0 4.0 0.00 0.00 0.00 42 1011.8
20260505163737 77 323 2.0 5.0 0.00 0.00 0.00 43 1011.7
20260505163235 78 23 3.0 6.0 0.00 0.00 0.00 43 1011.8
20260505162732 77 32 2.0 3.0 0.00 0.00 0.00 43 1011.8
20260505162229 77 78 2.0 4.0 0.00 0.00 0.00 44 1011.9
20260505161726 77 2 2.0 5.0 0.00 0.00 0.00 44 1011.9
20260505161224 77 52 4.0 5.0 0.00 0.00 0.00 45 1012.2
20260505160721 77 338 0.0 3.0 0.00 0.00 0.00 43 1012.2
20260505160219 76 47 0.0 6.0 0.00 0.00 0.00 43 1012.2
20260505153158 74 59 4.0 6.0 0.00 0.00 0.00 46 1012.5
20260505152654 74 67 6.0 8.0 0.00 0.00 0.00 46 1012.4
20260505152150 74 36 5.0 6.0 0.00 0.00 0.00 46 1012.5
20260505151646 74 58 5.0 7.0 0.00 0.00 0.00 47 1012.5
20260505151143 73 95 4.0 6.0 0.00 0.00 0.00 47 1012.7
20260505150639 73 101 5.0 9.0 0.00 0.00 0.00 47 1012.6
20260505150136 73 62 3.0 5.0 0.00 0.00 0.00 48 1012.7
20260505140605 71 41 5.0 7.0 0.00 0.00 0.00 50 1013.1